Regional Weather Roundup
Issued by NWS Sterling, VA

Home | Current Version | Previous Version | Graphics & Text | Print | Product List | Glossary On
Versions: 1 2 3 4 5 6 7 8 9 10 11 12 13 14 15 16 17 18 19 20 21 22 23 24 25 26 27 28 29 30 31 32 33 34 35 36 37 38 39 40 41 42 43 44 45 46 47 48 49 50
764
ASUS41 KLWX 250910
RWRLWX

REGIONAL WEATHER ROUNDUP
NATIONAL WEATHER SERVICE BALTIMORE MD/WASHINGTON DC
500 AM EDT SUN SEP 25 2016

Note: "FAIR" indicates few or no clouds below 12,000 feet
with no significant weather and/or obstructions to visibility.
 TC=TEMPERATURE CELSIUS

 * =Non NWS site. Station does not report precipitation (e.g. rain,
    snow, etc.), thunder, or fog.

DCZ001-MDZ009-015-VAZ040>042-051-053>054-251000-
WASHINGTON METRO

CITY           SKY/WX    TMP DP  RH WIND       PRES   REMARKS
WASHINGTON NAT PTCLDY    61  54  77 NE12      30.17S
DULLES         PTCLDY    57  52  83 N6        30.18R
ANDREWS AFB    CLEAR     55  53  94 NE6       30.16R
FT BELVOIR     PTCLDY    61  59  94 CALM      30.17R
QUANTICO         N/A     64  61  90 NW3       30.17R
COLLEGE PARK*  PTCLDY    54  50  87 CALM      30.17R
LEESBURG*      CLEAR     55  50  82 N5        30.19S
MANASSAS*      CLOUDY    61  59  94 N7        30.17R
GAITHERSBURG*  CLEAR     54  45  71 NE3       30.22R

$$

MDZ006>007-011-014-251000-
BALTIMORE METRO

CITY           SKY/WX    TMP DP  RH WIND       PRES   REMARKS
BWI AIRPORT    PTCLDY    51  48  89 CALM      30.18R
MD SCIENCE CTR   N/A     60  45  57 MISG      30.18S
ANNAPOLIS      CLEAR     62  55  77 N3        30.16R
FORT MEADE*    PTCLDY    50  50 100 CALM      30.20R

$$

MDZ012-015-019>023-251000-
MARYLAND EASTERN SHORE

CITY           SKY/WX    TMP DP  RH WIND       PRES   REMARKS
OCEAN CITY     CLEAR     57  54  89 NW5       30.13R
SALISBURY      PTCLDY    55  55 100 CALM      30.14R
BAY BRIDGE AP* CLEAR     59  48  67 MISG      30.17R
CAMBRIDGE*     PTCLDY    52  52 100 CALM      30.15R

$$

MDZ017>025-251000-
SOUTHERN MARYLAND

CITY           SKY/WX    TMP DP  RH WIND       PRES   REMARKS
PATUXENT RIVER CLEAR     60  55  83 NE5       30.15R
ST INIGOES     CLEAR     57  56  96 CALM      30.14R
LEONARDTOWN*   CLEAR     54  54 100 CALM      30.17R

$$

MDZ003>005-251000-
NORTH CENTRAL MARYLAND

CITY           SKY/WX    TMP DP  RH WIND       PRES   REMARKS
FREDERICK*     NOT AVBL
HAGERSTOWN APT CLEAR     54  43  66 N6        30.19S

$$

MDZ501>502-251000-
WESTERN MARYLAND

CITY           SKY/WX    TMP DP  RH WIND       PRES   REMARKS
OAKLAND*       CLEAR     46  45  93 SE9       30.20S
CUMBERLAND*    CLEAR     54  52  94 N3        30.24R

$$

VAZ025>031-251000-
SHENANDOAH VALLEY

CITY           SKY/WX    TMP DP  RH WIND       PRES   REMARKS
WINCHESTER*    CLEAR     54  45  71 N3        30.18S
FRONT ROYAL*   CLOUDY    55  52  88 CALM      30.17S
LURAY*         CLOUDY    61  59  94 N8        30.17R
NEW MARKET*    CLOUDY   N/A N/A N/A N6        30.16S
STAUNTON*      CLOUDY    64  58  78 NE5       30.19R
WAYNESBORO*    CLOUDY    63  61  96 CALM      30.17S

$$

WVZ021-048>050-054>055-251000-
EASTERN WEST VIRGINIA PANHANDLE

CITY           SKY/WX    TMP DP  RH WIND       PRES   REMARKS
MARTINSBURG    CLEAR     53  44  71 N5        30.19R
PETERSBURG*    MOCLDY    60  56  87 CALM      30.18R

$$

VAZ036>039-050-251000-
CENTRAL FOOTHILLS

CITY           SKY/WX    TMP DP  RH WIND       PRES   REMARKS
CHARLOTTESVILL CLOUDY    68  62  81 NE3       30.16S
CULPEPER*      CLOUDY    64  63  96 CALM      30.18R
ORANGE*          N/A     66  66 100 CALM      30.18R
GORDONSVILLE*  CLOUDY    66  64  94 CALM      30.16R
WARRENTON*     CLOUDY    63  58  83 N5        30.17R

$$

VAZ055>057-251000-
NORTH AND CENTRAL PIEDMONT

CITY           SKY/WX    TMP DP  RH WIND       PRES   REMARKS
FREDERICKSBRG* CLOUDY    65  65 100 CALM      30.15R
STAFFORD*      CLOUDY    64  62  95 N3        30.20R

$$

NCZ024-NYZ072-PAZ021-071-VAZ022-071-251000-
OTHER REGIONAL OBSERVATIONS

CITY           SKY/WX    TMP DP  RH WIND       PRES   REMARKS
NEW YORK CITY  CLEAR     55  42  61 N6        30.19R
PHILADELPHIA   CLEAR     56  41  57 N10       30.18R
PITTSBURGH     CLEAR     52  47  83 N5        30.18R
ROANOKE        CLOUDY    69  64  84 SE12      30.17R
RICHMOND       CLOUDY    66  61  84 N6        30.14R
RALEIGH        CLOUDY    72  69  90 E10       30.10S

$$

ANZ530>537-251000-
MARINE OBSERVATIONS

STATION/POSITION TIME  TEMP    WIND        PRES
                       AIR SEA DIR/SP/G
                 (UTC) (F)     (DEG/KT/KT) (MB)
THOMAS PT LIGHT  0900   64 76   40/ 16/ 18 1022.4R
BALT KEY BRIDGE  0848   60      20/ 10/ 12 1021.6R
COVE POINT       0848   66      50/  8/ 11 1021.4R
LEWISETTA        0848   68 74   40/  6/  8 1020.3R
SOLOMONS ISLAND  0848   64 77  330/  5/  5   N/A
PINEY POINT      0848           30/  5/  6   N/A

$$





USA.gov is the U.S. government's official web portal to all federal, state and local government web resources and services.